Theta_e
330 328 327 327 326 330 333 334 330 325 324 324 322 318 313 307 305 304 304 306 309 310 311 311 311 309 308 308 307 306 306 306 306 306 305 305 305 305 305 304 304 304 305
325 324 323 324 322 326 331 330 322 320 318 317 316 315 308 305 304 303 303 303 304 308 309 309 308 308 307 307 307 306 305 305 306 305 304 304 304 304 303 303 303 303 304
322 321 321 319 317 320 329 322 317 316 314 312 310 311 304 304 304 303 302 302 302 304 307 307 306 306 306 306 305 305 305 304 304 304 304 303 303 303 302 302 302 302 303
318 318 316 314 314 317 323 317 315 313 310 306 304 304 303 303 304 303 302 302 302 302 305 304 305 304 304 304 304 304 304 303 303 303 303 303 302 302 301 301 301 302 302
311 311 310 313 320 323 324 318 314 311 308 305 304 305 304 303 304 303 302 302 302 301 302 302 304 304 303 302 302 302 302 302 302 303 302 302 301 301 301 301 301 301 301
309 309 310 316 321 322 322 320 316 311 307 304 303 304 304 303 303 302 302 302 301 302 301 300 301 300 298 299 300 300 301 301 302 302 301 301 300 300 300 300 300 300 300
307 308 309 314 317 320 319 318 317 314 309 304 304 303 304 303 302 302 302 302 301 301 300 300 299 297 296 296 298 298 298 299 300 300 300 299 299 299 300 300 300 300 300
305 307 308 310 312 316 316 317 316 314 308 306 306 305 305 302 300 301 302 302 300 300 299 298 296 296 295 295 296 296 296 297 298 299 299 299 299 299 299 299 299 299 300
305 305 307 307 305 306 308 310 315 316 310 311 306 310 305 302 300 300 301 301 300 299 297 296 296 295 295 295 294 294 295 295 296 297 298 298 298 299 298 299 298 299 299
304 304 306 306 307 306 304 306 308 313 313 309 306 304 306 303 302 302 299 299 298 297 296 295 295 294 295 295 294 294 294 292 295 296 296 297 297 297 297 297 297 297 297
304 303 304 305 305 305 305 304 305 306 308 308 306 301 302 301 302 300 296 297 296 295 295 295 294 294 294 294 293 293 293 291 293 295 295 295 296 296 296 295 295 295 295
303 302 303 303 303 302 302 302 302 303 302 301 300 299 299 298 297 297 295 296 296 295 295 294 294 293 293 292 292 291 291 291 292 293 294 294 295 294 295 294 294 294 294
301 301 301 302 302 301 300 299 298 298 298 298 297 297 296 296 296 297 296 296 295 296 296 295 293 292 292 291 290 289 290 291 291 292 293 293 293 293 293 292 292 293 293
301 300 299 299 300 301 301 299 298 298 298 298 297 297 296 296 296 296 296 296 293 295 295 293 293 291 290 290 289 289 290 290 290 291 291 292 292 292 291 291 291 291 292
300 300 299 298 298 297 297 298 298 298 297 298 298 297 296 295 295 296 295 295 294 291 291 293 291 290 290 289 289 289 289 289 290 291 291 290 292 291 290 290 289 290 290
299 299 299 299 298 298 297 297 297 296 297 297 297 296 295 294 294 294 293 293 293 293 290 292 290 289 289 288 288 289 289 289 289 289 288 290 291 289 289 289 289 289 290
298 299 299 299 298 297 297 297 297 296 296 296 296 294 291 291 291 291 290 291 291 291 290 290 289 288 288 288 288 288 289 289 289 289 288 290 291 289 288 288 288 288 289
298 298 298 298 298 298 297 296 297 297 296 295 293 291 290 290 290 291 291 291 291 290 289 288 288 288 288 288 288 288 289 289 288 289 287 288 289 288 288 288 287 288 288
298 298 298 299 298 297 297 296 296 296 295 294 293 292 292 290 289 290 291 291 291 290 289 288 287 287 288 288 288 288 288 289 288 288 287 288 288 288 288 287 287 287 287
298 298 298 298 297 297 296 296 295 294 294 294 294 293 293 292 288 288 291 292 291 290 289 288 287 287 288 288 288 288 287 288 288 287 287 287 288 287 287 286 287 286 286
299 298 298 297 297 297 296 295 295 295 295 295 295 294 293 292 289 288 291 292 291 290 289 287 287 287 287 288 287 287 287 288 287 287 287 286 288 287 287 287 286 286 285
300 299 299 297 297 296 295 295 295 295 295 295 295 294 293 292 290 289 291 291 290 289 287 287 287 287 287 287 287 287 288 288 287 287 287 286 287 288 287 287 286 286 285
300 300 299 298 296 295 296 296 295 295 295 295 294 293 293 291 291 290 290 290 288 287 287 287 287 287 287 287 287 287 288 287 286 287 286 286 286 287 287 287 286 286 285
301 300 299 299 298 296 296 295 295 295 295 295 294 293 293 292 291 290 288 289 287 287 287 287 287 287 287 287 287 287 288 286 287 287 286 285 286 287 287 287 286 286 285
301 301 300 299 299 297 296 296 295 295 296 295 295 294 293 293 292 290 288 288 287 287 287 286 286 286 286 286 287 287 286 285 286 286 286 285 286 286 287 286 286 286 285
301 301 300 300 299 298 297 296 293 294 295 295 295 294 293 293 292 288 288 287 287 287 286 286 286 286 286 286 286 287 287 286 285 286 286 286 286 286 286 286 286 286 286
Wind_Speed
10 12 12 11 10 12 15 19 17 16 17 18 20 21 22 21 20 21 21 19 19 19 19 20 20 21 20 21 22 22 21 20 19 19 20 20 19 19 19 20 20 20 20
11 12 10 9 9 12 15 18 18 20 22 22 22 21 22 20 20 20 19 19 19 18 19 19 18 19 20 20 20 21 20 19 19 18 19 19 19 19 19 19 19 20 20
10 9 8 8 9 14 18 20 24 24 24 23 22 20 20 18 18 19 19 18 19 19 17 17 17 16 18 20 20 20 20 19 19 20 19 19 19 19 20 21 21 20 21
7 7 7 8 10 14 22 25 24 25 24 23 22 21 19 17 16 16 17 17 18 18 18 17 15 17 19 20 20 20 20 19 19 19 19 19 19 19 20 21 22 22 22
6 7 8 11 14 19 26 25 24 24 25 23 21 20 17 14 14 14 16 15 15 14 14 12 15 17 18 19 19 19 19 19 19 19 19 18 20 21 21 21 21 21 22
7 7 10 15 17 21 24 23 25 23 24 23 21 21 16 13 13 13 13 12 12 11 12 11 13 15 17 19 19 19 18 18 18 19 20 20 21 21 22 22 22 22 23
6 6 11 15 17 21 22 21 24 24 20 22 22 20 17 15 14 13 11 12 12 12 11 13 14 17 20 20 20 19 19 18 19 19 18 20 20 20 21 21 21 22 23
6 8 9 13 17 20 20 21 24 26 26 20 14 18 2 8 16 15 8 12 13 13 14 14 16 19 19 21 20 20 18 19 18 18 18 19 20 21 22 22 23 23 23
6 7 9 11 14 15 17 16 18 24 25 12 23 3 3 2 4 12 16 14 15 16 15 15 17 18 18 19 21 20 19 17 17 18 19 18 20 21 22 23 24 23 23
7 7 10 11 13 13 14 13 14 18 26 19 13 4 4 10 3 3 13 17 17 15 15 16 17 17 16 16 19 17 17 16 16 17 18 18 21 21 22 23 23 24 25
11 9 10 11 12 14 14 13 13 15 17 17 10 8 12 12 6 4 3 7 14 14 17 17 17 17 16 14 19 17 17 16 14 16 18 19 21 21 22 22 24 25 27
13 12 11 12 13 15 15 16 16 14 15 15 12 8 5 3 2 3 5 3 6 6 10 15 18 18 17 18 18 18 15 15 14 16 18 19 19 20 20 23 24 26 25
16 14 14 14 15 16 17 17 19 19 19 20 18 19 16 15 12 12 11 3 2 4 3 5 15 18 17 20 20 17 14 14 14 17 18 18 18 19 20 22 24 24 25
17 16 16 15 16 16 16 16 18 20 18 19 19 17 17 15 12 10 7 5 1 1 1 8 7 17 17 21 19 17 15 15 15 17 17 17 16 18 21 22 23 23 24
19 18 16 16 16 15 16 16 18 19 18 18 17 16 15 13 11 10 9 7 3 2 1 3 9 15 17 20 18 16 14 15 15 17 16 17 14 18 21 22 24 23 24
19 18 17 16 16 16 16 16 18 17 17 17 15 14 13 11 10 9 8 7 6 3 2 4 7 12 17 18 17 17 14 15 15 19 18 15 13 19 21 22 23 23 24
21 20 18 18 17 17 16 16 16 16 16 16 14 12 13 10 10 9 8 9 10 7 5 4 8 13 17 19 18 18 15 17 15 21 18 13 12 17 20 22 22 22 25
21 21 20 19 17 16 15 15 16 14 14 14 13 12 13 10 10 10 9 10 12 11 6 8 9 13 16 16 17 18 17 15 19 19 19 10 11 17 19 22 22 22 24
22 21 20 20 17 16 16 14 13 14 13 13 12 11 11 9 9 8 8 8 8 8 10 8 9 11 14 15 16 17 18 13 17 18 19 14 13 16 18 21 22 22 23
24 22 20 18 18 17 15 15 14 13 13 12 10 9 9 7 8 6 5 5 4 5 7 9 9 9 12 16 16 16 15 19 13 20 15 14 13 16 20 21 21 21 22
24 22 21 19 18 17 16 16 14 13 13 13 10 8 7 6 6 6 5 4 4 5 6 7 8 9 11 15 15 15 15 17 10 19 16 18 12 16 19 22 22 21 22
25 24 22 20 19 18 16 14 14 14 12 11 11 9 7 4 5 6 7 6 5 5 5 7 7 9 11 13 12 14 17 15 7 14 19 15 12 10 16 19 19 21 22
28 26 23 21 19 18 17 15 14 14 12 11 9 8 8 4 3 4 4 4 5 6 7 7 7 7 10 13 12 10 12 14 9 9 20 11 19 7 9 16 19 20 25
30 28 25 23 20 19 18 16 15 13 12 9 7 7 6 4 1 3 1 1 3 5 6 5 6 7 7 9 10 9 10 14 7 3 19 6 17 15 8 10 18 19 21
32 29 27 25 23 20 20 18 17 15 13 11 9 9 6 4 1 4 2 2 3 4 5 4 4 5 6 7 8 7 9 11 6 3 15 9 13 21 7 10 13 16 19
32 29 28 26 24 22 21 20 18 16 15 15 13 11 9 6 4 3 4 4 4 4 3 3 5 5 5 6 7 8 5 8 6 4 12 12 12 14 7 8 11 15 14
Wind_Direction
159 151 149 149 130 126 145 141 132 125 116 117 115 112 108 104 101 95 88 84 84 76 73 73 70 62 57 51 46 40 34 31 26 25 23 18 17 14 10 6 3 0 356
160 155 152 145 139 135 144 141 131 123 116 116 115 114 109 106 102 95 86 86 82 82 78 75 70 62 54 47 40 35 30 27 24 23 15 11 12 10 7 4 1 360 356
161 164 170 159 147 141 144 135 127 121 118 114 112 113 107 107 104 97 88 85 82 81 84 76 66 61 52 44 36 29 25 23 19 14 11 12 11 9 4 2 359 358 355
168 180 181 166 145 154 155 139 131 126 120 116 117 117 111 106 108 100 89 85 80 83 90 69 65 59 50 39 30 23 19 18 13 13 15 13 10 6 3 360 357 356 354
149 162 146 138 142 146 151 145 138 132 129 125 123 123 115 109 115 109 93 91 87 84 87 67 72 60 48 35 26 22 19 16 17 13 15 12 6 3 0 1 357 355 353
132 136 138 133 145 146 152 150 143 138 136 134 129 121 111 106 118 102 98 100 91 91 91 82 69 55 36 31 26 22 21 22 18 13 11 8 4 3 1 358 355 354 352
121 153 139 142 142 147 147 151 148 145 141 141 119 106 87 91 104 94 90 102 92 100 84 77 58 36 26 28 30 24 26 22 17 13 13 6 4 3 358 356 354 352 349
131 141 141 151 159 151 151 156 157 148 148 149 147 129 119 71 71 76 90 112 97 103 88 67 45 36 30 29 29 26 21 20 11 12 8 4 2 360 358 358 356 354 352
131 136 146 146 145 144 151 169 175 170 160 160 161 147 120 132 141 63 63 109 112 98 79 53 44 34 27 29 27 22 16 15 10 6 5 2 0 359 359 359 356 356 354
136 142 148 140 142 144 135 139 170 178 174 151 153 71 146 144 164 146 69 102 106 90 68 55 49 36 34 25 19 22 14 9 10 8 5 5 2 1 1 359 358 356 352
147 146 149 145 140 136 127 133 135 137 159 164 161 115 108 109 134 138 137 118 98 92 69 56 43 35 27 24 14 15 5 8 11 9 7 4 2 3 2 1 358 356 352
145 144 141 139 132 125 122 120 123 129 131 128 132 134 156 128 99 116 107 141 155 138 76 41 26 23 20 10 11 3 3 9 18 16 10 5 5 4 5 2 359 356 358
143 139 142 136 132 124 122 120 119 117 114 113 111 102 99 94 92 95 111 125 152 179 258 18 23 14 11 7 10 11 20 23 26 21 16 10 10 10 8 2 360 1 3
152 149 145 138 131 132 128 125 122 114 113 109 109 104 97 89 86 85 107 145 65 44 63 23 350 6 7 8 15 16 26 29 27 21 16 15 13 19 10 6 5 8 8
158 155 149 142 137 133 131 132 124 119 117 115 111 106 96 90 88 83 82 78 122 142 314 14 9 357 10 13 22 20 33 31 31 27 21 17 27 19 13 10 10 12 12
165 161 156 152 148 144 141 136 127 125 124 116 114 109 101 95 92 82 71 70 78 123 137 24 13 13 11 23 30 29 38 33 36 29 19 19 24 14 14 14 14 14 12
172 168 163 160 157 152 148 141 134 133 127 122 118 112 101 97 89 80 78 79 76 83 102 37 17 16 20 26 35 35 35 33 36 27 11 23 24 14 19 18 18 18 17
177 173 168 165 162 157 153 150 144 143 134 128 119 112 101 98 92 92 89 80 68 67 85 43 24 17 25 22 29 31 33 37 33 21 19 27 27 19 21 21 19 21 19
179 178 174 172 170 166 161 157 154 147 140 130 123 113 105 98 90 94 87 75 68 64 57 49 28 21 21 17 22 27 31 40 33 24 30 41 37 28 25 24 22 20 19
182 181 180 179 176 174 170 164 159 152 145 138 133 120 111 95 74 75 84 64 57 66 47 41 35 21 13 13 17 11 13 19 15 19 31 32 37 33 31 28 27 21 19
187 185 182 183 181 181 178 171 164 157 151 151 152 140 123 90 54 52 68 49 50 70 44 42 34 18 14 9 6 2 6 5 14 12 22 25 29 30 30 25 20 18 15
188 189 189 188 186 185 184 180 179 172 168 169 168 160 149 113 51 58 67 60 57 50 66 46 26 10 6 9 4 5 0 356 358 10 9 21 22 24 26 28 15 18 15
190 192 192 194 193 191 189 187 188 184 177 177 177 174 166 143 61 44 48 46 54 67 62 45 19 9 358 0 356 358 360 352 348 358 1 3 20 18 13 23 19 16 15
193 193 195 199 199 197 194 194 195 191 186 188 189 187 186 171 86 5 355 62 78 72 69 42 17 6 360 355 349 357 352 351 15 2 8 339 7 6 3 15 17 14 16
194 197 199 201 205 202 200 200 201 198 194 194 197 199 198 197 236 319 218 164 115 88 85 40 19 7 353 344 347 350 3 357 349 348 4 349 360 357 356 13 13 10 15
197 198 202 207 210 209 207 209 213 210 205 203 205 207 210 226 265 297 190 168 148 121 89 45 22 11 6 342 350 359 1 353 339 331 357 353 356 4 338 338 355 355 5